Regional Weather Roundup
Issued by NWS

Home | Current Version | Previous Version | Text Only | Print | Product List | Glossary On
Versions: 1 2 3 4 5 6 7 8 9 10 11 12 13 14 15 16 17 18 19 20 21 22 23 24 25 26 27 28 29 30 31 32 33 34 35 36 37 38 39 40 41 42 43 44 45 46 47 48 49 50
000
ASCA44 KEWX 231620
RWRMX

LATIN AMERICA AND CARIBBEAN REGIONAL WEATHER ROUNDUP
NATIONAL WEATHER SERVICE AUSTIN/SAN ANTONIO TX
1100 AM CDT THU MAR 23 2017

NOTE: "FAIR" INDICATED FEW OR NO CLOUDS BELOW 12,000 FEET WITH NO
SIGNIFICANT WEATHER AND/OR OBSTRUCTIONS TO VISIBILITY.

BAJA CALIFORNIA

CITY           SKY/WX    TMP DP  RH WIND       PRES   REMARKS
LORETO         MOSUNNY   72  63  73 N23       30.01R
LA PAZ         PTSUNNY   72  55  56 CALM      30.03R
MEXICALI       SUNNY     63  36  36 W21       30.00S
S.J. DEL CABO  PTSUNNY   75  57  53 NW7       30.00R
TIJUANA        PTSUNNY   57  46  67 W12       30.14R

NORTHWESTERN MEXICO

CITY           SKY/WX    TMP DP  RH WIND       PRES   REMARKS
CULIACAN       PTSUNNY   72  63  73 CALM      29.95R
DURANGO        MOSUNNY   68  43  40 S6        30.24S
GUAYMAS        MOSUNNY   72  55  56 NW17      30.00R
HERMOSILLO     MOSUNNY   68  45  42 W10       30.07R
CD. JUAREZ     MOSUNNY   77  28  16 S12G23    29.80F
LOS MOCHIS     PTSUNNY   73  59  60 NW17      29.99R
OBREGON        MOSUNNY   70  59  68 W15       29.98R

NORTHEASTERN MEXICO

CITY           SKY/WX    TMP DP  RH WIND       PRES   REMARKS
CHIHUAHUA      PTSUNNY   79  16   9 S24       30.01F
MATAMOROS      PTSUNNY   81  64  57 SE20      30.10R
MONCLOVA       PTSUNNY   73  59  60 CALM      30.02
MONTERREY      CLOUDY    70  61  73 E10       30.05R
NUEVO LAREDO   PTSUNNY   75  63  64 SE21      30.05S
PIEDRAS NEGRAS PTSUNNY   70  63  78 SE16      30.05R
REYNOSA        PTSUNNY   75  63  64 S12G23    30.08R
SALTILLO       SUNNY     72  52  49 NE8       30.17S
TORREON        MOSUNNY   77  48  36 E8        30.06R
CD. VICTORIA   MOSUNNY   75  61  60 S20       30.08R

WESTERN MEXICO

CITY           SKY/WX    TMP DP  RH WIND       PRES   REMARKS
AGUASCALIENTES SUNNY     72  25  17 W5        30.31S
COLIMA         CLOUDY    70  68  94 CALM      30.11R
DEL BAJIO      SUNNY     68  36  30 CALM      30.35R
GUADALAJARA    SUNNY     73  34  23 E6        30.22S
MANZANILLO     PTSUNNY   81  70  69 CALM      29.98R
MAZATLAN       CLOUDY    77  68  73 S5        30.02R
P. VALLARTA    SUNNY     75  66  73 CALM      29.98S
URUAPAN        SUNNY     68  52  56 CALM      30.26R
ZACATECAS      SUNNY     72  32  23 S17       30.30S

CENTRAL MEXICO

CITY           SKY/WX    TMP DP  RH WIND       PRES   REMARKS
CUERNAVACA       N/A     73  34  23 E5        30.24
MEXICO CITY    SUNNY     61  30  31 E7        30.38S
MORELIA        SUNNY     72  37  28 VRB2      30.29F
POZA RICA      PTSUNNY   75  70  83 S5        30.16R
PUEBLA         SUNNY     59  23  25 E5        30.39R
QUERETARO      SUNNY     61  46  59 SE5       30.37S
S. LUIS POTOSI SUNNY     63  43  48 SE7       30.31R
TAMPICO        MOSUNNY   77  68  73 S6        30.12S
TOLUCA         SUNNY     59  23  25 NW5       30.44S

SOUTHERN MEXICO

CITY           SKY/WX    TMP DP  RH WIND       PRES   REMARKS
ACAPULCO       SUNNY     84  66  54 CALM      29.98S
B. DE HUATULCO SUNNY     86  68  54 CALM      30.05R
OAXACA         SUNNY     64  34  32 SW2       30.36S
P. ESCONDIDO   SUNNY     82  59  44 SE13      30.08R
VERACRUZ       PTSUNNY   79  68  69 N5        30.12S
ZIHUATANEJO    SUNNY     86  72  62 S2        29.99R HX  92

YUCATAN PENINSULA

CITY           SKY/WX    TMP DP  RH WIND       PRES   REMARKS
CAMPECHE       SUNNY     81  66  61 E14       30.11S
CANCUN         MOSUNNY   81  63  54 E9        30.17R
CHETUMAL       SUNNY     81  63  54 SE2       30.15S
CD. DEL CARMEN SUNNY     81  66  61 SE14      30.11S
COZUMEL        MOSUNNY   81  63  54 NE9       30.14S
MERIDA         SUNNY     82  59  44 E10       30.16S
MINATITLAN     MOSUNNY   79  72  78 N7        30.10R
TAPACHULA      PTSUNNY   86  70  58 CALM      29.98R HX  90
TUX. GUTIERREZ SUNNY     79  54  41 NE5       30.10F
VILLAHERMOSA   PTSUNNY   77  68  73 E6        30.12R

CENTRAL AMERICA

CITY           SKY/WX    TMP DP  RH WIND       PRES   REMARKS
BELIZE CITY    MOSUNNY   82  68  61 E9        30.13S
MANAGUA        MOSUNNY   88  68  51 NE14      29.97S HX  91

CARIBBEAN

CITY           SKY/WX    TMP DP  RH WIND       PRES   REMARKS
ARUBA          MOSUNNY   86  75  70 E17       29.92S HX  95
CURACAO        MOSUNNY   84  75  74 E15       29.94S HX  92
KINGSTON       MOSUNNY   82  70  65 SW9       30.00S
NASSAU         PTSUNNY   79  64  61 NE13      30.19S
SAN JUAN       LGT RAIN  75  75 100 NE6       29.99
SANTO DOMINGO  PTSUNNY   82  73  74 N5        29.97S
ST. CROIX      MOSUNNY   84  72  65 SE10      30.02
ST. KITTS      MOSUNNY   84  72  65 E16       30.00S
ST. MAARTEN    MOSUNNY   82  75  78 SE15      30.00S
ST. THOMAS     MOSUNNY   82  75  78 SE13      29.99

$$




USA.gov is the U.S. government's official web portal to all federal, state and local government web resources and services.